Location: C�an Torras
(41.5052°N, 1.9280°E)
Time: 02:01:03
(UTC+00:00)

Cosmos 1703 - Pass Details

Date: 20 January 2021
Orbit: 524 x 538 km, 82.5° (Epoch: 08 March)

Event Time Altitude Azimuth Distance (km) Brightness Sun altitude
Rises 18:59:49 0° 195° (SSW) 2,651 7.1 -23.4°
Reaches altitude 10° 19:01:58 10° 199° (SSW) 1,765 6.2 -23.8°
Maximum altitude 19:05:47 59° 279° (W) 612 3.7 -24.5°
Enters shadow 19:06:12 55° 310° (NW) 636 3.7 -24.6°
